Location: Nebula Knoll Observatory
(43.6666°N, 71.0000°W)
Time: 23:39:31
(UTC-04:00)

Daily predictions for brighter satellites

Satellite Brightness Start Highest point End
(mag) Time Altitude Azimuth Time Altitude Azimuth Time Altitude Azimuth
Cosmos 2237 Rocket 2.2 18:52:00 10° SSW 18:57:40 79° ESE 19:03:23 10° NNE
NOSS 3-2 (C) 4.3 18:54:31 10° SSE 18:59:31 28° ESE 19:04:52 10° NE
Cosmos 2056 Rocket 3.7 18:54:28 10° NNW 18:59:50 57° ENE 19:05:09 10° SE
Spot 2 Rocket 4.1 18:55:35 10° SE 19:00:11 37° ENE 19:04:48 10° N
Cosmos 1437 3.0 18:57:27 10° N 19:00:39 49° ENE 19:03:50 10° SSE
NOAA 12 4.2 18:56:50 10° SSE 19:01:58 57° ENE 19:07:09 10° N
BREEZE-M DEB (TANK) 3.0 19:00:24 10° W 19:02:18 31° SSW 19:05:26 10° SE
CZ-4C R/B 2.2 18:57:17 10° SSW 19:02:36 85° SE 19:08:39 10° NE
Cosmos 1766 4.0 18:59:44 10° SSE 19:03:16 32° E 19:06:50 10° NNE
IDEFIX/ARIANE 42P 4.1 18:59:31 10° SSW 19:04:27 42° W 19:09:26 10° NNW
MSX 4.4 18:59:22 10° S 19:05:04 65° WSW 19:10:48 10° NNW
FREGAT/IRIS 3.0 19:04:15 10° SSE 19:07:12 44° ENE 19:10:12 10° N
COSMO-SKYMED 1 2.8 19:03:02 10° N 19:07:23 76° WNW 19:11:43 10° SSW
NOSS 0 Rocket 4.2 19:02:41 10° SSW 19:08:51 78° WNW 19:15:06 10° NNE
Cosmos 1371 Rocket 4.1 19:04:05 10° NNW 19:09:25 88° E 19:14:44 10° SSE
ATLAS 5 CENTAUR R/B 3.1 19:06:17 10° SSE 19:09:48 21° ESE 19:13:29 10° ENE
Cosmos 1980 4.0 19:05:22 10° SSW 19:11:01 77° WNW 19:16:43 10° NNE
Helios 1A 3.6 19:07:50 10° SE 19:11:40 36° ENE 19:15:32 10° N
SL-16 R/B 2.4 19:10:50 10° S 19:16:16 50° ESE 19:21:45 10° NE
Cosmos 1953 3.4 19:16:18 10° SE 19:19:28 23° E 19:22:39 10° NE
SAR-Lupe-1 4.3 19:17:03 10° S 19:20:35 75° WSW 19:24:10 10° NNW
Cosmos 1464 Rocket 4.1 19:15:57 10° SSE 19:21:58 52° E 19:27:57 10° NNE
Aureole 2 Rocket 3.0 19:22:07 10° S 19:26:25 57° ESE 19:30:40 10° NNE
Cosmos 1624 Rocket 4.1 19:22:10 10° NNW 19:27:25 80° WSW 19:32:36 10° SSE
Cosmos 1766 Rocket 3.9 19:24:35 10° N 19:28:48 43° ENE 19:32:57 10° SSE
ATLAS CENTAUR R/B 3.7 19:28:06 10° SSW 19:33:07 62° ESE 19:48:58 10° NE
Meteor 1-22 Rocket 4.1 19:30:07 10° S 19:35:29 87° E 19:40:49 10° N
Cosmos 1805 3.8 19:33:15 10° SSE 19:36:49 35° E 19:40:26 10° NNE
USA 215 3.2 19:30:41 10° NE 19:37:14 73° SE 19:43:45 10° SW
Cosmos 2219 Rocket 3.9 19:33:19 10° WSW 19:38:24 34° NW 19:43:34 10° N
HJ-1C 3.3 19:36:05 10° SSE 19:39:27 87° ENE 19:42:50 10° NNW
H-2A R/B 3.6 19:36:56 15° SE 19:39:37 32° ENE 19:43:06 10° N
Cosmos 2278 Rocket 3.7 19:35:10 10° NW 19:40:21 38° WSW 19:45:31 10° S
Meteor 1-29 3.0 19:39:14 10° NNE 19:42:42 56° E 19:46:09 10° S
Timation 1 Rocket 4.3 19:38:08 10° NNW 19:44:09 84° ENE 19:50:07 10° SSE
Cosmos 2297 4.0 19:38:30 10° NNW 19:44:11 72° WSW 19:49:47 10° SSE
METEOR-M 4.2 19:39:21 10° SSE 19:44:42 82° WSW 19:50:05 10° NNW
Meteor 1-28 Rocket 3.9 19:41:51 10° N 19:45:32 56° WNW 19:49:10 10° SSW
Meteor 1-24 Rocket 4.2 19:40:06 10° NNW 19:45:44 63° W 19:51:08 10° S
Cosmos 1378 3.6 19:43:33 10° NNW 19:47:15 63° W 19:50:56 10° S
FENGYUN 3A 3.7 19:45:43 10° SSE 19:50:58 60° ENE 19:56:17 10° N
Cosmos 1076 Rocket 3.5 19:47:03 10° N 19:51:23 87° W 19:55:44 10° S
SJ-6B 4.5 19:48:20 10° SSW 19:52:00 36° W 19:55:47 10° NNW
Cosmos 1544 3.7 19:49:51 10° SSE 19:53:16 35° E 19:56:44 10° NNE
Cosmos 1346 3.8 19:52:20 10° N 19:54:56 33° ENE 19:54:56 33° ENE
ERS-1 Rocket 4.1 19:54:39 22° E 19:55:41 23° ENE 19:59:35 10° NNE
Cosmos 1891 Rocket 4.5 19:49:47 10° S 19:56:15 76° E 20:02:39 10° N
Cosmos-2242 3.1 19:52:02 10° S 19:56:16 56° E 20:00:36 10° NNE
Cosmos 1452 Rocket 3.4 19:51:24 10° NNW 19:56:41 75° ENE 20:01:27 13° SSE
ATLAS 3B R/B 4.4 19:51:29 10° W 19:58:15 34° NW 20:04:49 10° NNE
Helios 1B rocket 2.6 19:55:11 10° N 19:59:18 76° WNW 20:03:24 10° SSW
Cosmos 1758 3.2 19:56:00 10° S 20:00:03 70° E 20:04:09 10° NNE
Cosmos 2369 Rocket 3.3 19:55:21 10° N 20:00:05 27° NE 20:01:48 23° E
Cosmos 192 4.3 19:56:52 10° SSW 20:01:50 89° WNW 20:06:50 10° NNE
SeaSat 1 2.9 19:57:44 10° NE 20:02:21 38° ESE 20:06:55 10° S
Cosmos 1842 Rocket 4.2 20:02:21 31° E 20:02:25 31° E 20:06:16 10° NNE
Cosmos 1603 3.9 19:57:54 10° S 20:03:20 46° ESE 20:08:48 10° NE
Cosmos 1500 Rocket 4.1 19:59:27 10° N 20:03:35 37° ENE 20:04:33 32° ESE
Cosmos 1408 Rocket 3.7 20:00:13 10° NNW 20:04:35 72° W 20:08:53 10° S
Resurs 01 Rocket 2.6 20:04:59 10° S 20:09:18 48° W 20:13:37 10° NNW
Cosmos 1943 Rocket 3.8 20:08:00 10° N 20:11:31 17° NE 20:12:21 16° NE
NOSS 3-2 (A) 3.6 20:06:43 10° SW 20:12:49 80° NW 20:19:34 10° NE
Resurs 1-3 4.3 20:09:01 10° S 20:13:19 56° W 20:17:40 10° NNW
Cosmos 2333 Rocket 4.4 20:08:58 10° WSW 20:13:45 26° NW 20:18:33 10° N
Cosmos 468 4.4 20:08:45 10° S 20:13:54 60° ESE 20:19:04 10° NNE
Cosmos 2151 4.3 20:12:18 10° NNE 20:14:46 23° NE 20:14:46 23° NE
CZ-4B DEB 3.2 20:15:36 24° S 20:17:25 62° W 20:20:41 10° NNW
Cosmos 1420 Rocket 4.0 20:15:30 10° NNW 20:20:48 68° ENE 20:23:00 35° SE
Cosmos 1939 Rocket 4.2 20:24:39 25° NE 20:24:39 25° NE 20:27:00 10° N
ATLAS CENTAUR R/B 4.0 20:21:35 10° WNW 20:24:04 16° WSW 20:26:27 10° SSW
Atlas Centaur 2 4.5 20:18:42 10° WSW 20:24:53 23° SSW 20:28:59 15° SSE
Meteor 1-21 Rocket 4.3 20:19:50 10° NNW 20:25:25 76° W 20:30:55 10° S
ALOS 2.9 20:26:31 10° S 20:31:05 55° W 20:35:42 10° NNW
Cosmos 1743 Rocket 3.6 20:26:54 10° N 20:31:22 79° W 20:33:29 30° S
Cosmos 1674 2.6 20:28:33 10° N 20:32:23 78° ENE 20:32:23 78° ENE
Nadezhda 4 Rocket 4.0 20:26:08 10° N 20:32:27 82° W 20:38:40 10° S
Cosmos 1269 Rocket 3.9 20:29:09 10° S 20:34:23 71° ESE 20:39:39 10° NNE
Cosmos 1092 Rocket 3.8 20:31:11 10° N 20:37:27 81° E 20:40:56 28° SSE
GP-B 3.0 20:34:55 10° N 20:39:11 68° ENE 20:39:11 68° ENE
Cosmos 1048 Rocket 3.9 20:36:02 10° S 20:41:18 69° ESE 20:46:32 10° NNE
OAO 3 Rocket 4.4 20:42:34 10° WSW 20:46:04 28° SSW 20:46:04 28° SSW
Envisat 3.1 20:50:02 58° NE 20:50:02 58° NE 20:54:45 10° N
NOSS 3-2 (C) 4.0 20:43:52 10° SW 20:49:55 59° NW 20:56:36 10° NNE
ASTEX 1 4.1 20:46:24 10° N 20:51:12 54° W 20:55:57 10° SSW
CZ-4C R/B 4.4 20:47:27 10° W 20:51:59 24° NNW 20:56:58 10° NNE
Cosmos 1634 Rocket 3.8 20:49:16 28° S 20:52:44 75° E 20:58:57 10° N
CENTAUR R/B 4.0 20:47:18 10° S 21:00:34 - NE 20:48:51 19° S
ATLAS 5 CENTAUR R/B 2.4 20:49:12 10° SW 20:53:57 56° NW 20:59:09 10° NNE
Cosmos 2026 Rocket 3.9 20:48:12 10° N 20:54:15 62° E 20:54:39 61° E
Cosmos 1953 4.5 20:52:25 10° SW 20:55:48 26° WNW 20:59:12 10° NNW
SL-16 R/B 4.2 20:55:48 10° WSW 21:00:38 28° NW 21:05:32 10° N
H-2A R/B 3.8 21:14:39 25° N 21:14:39 25° N 21:16:40 10° N
Cosmos 2195 Rocket 4.5 21:09:18 10° N 21:15:39 81° W 21:16:42 64° SSW
USA 215 4.2 21:14:23 12° NE 21:20:00 44° NNW 21:26:06 10° W
ERS-1 Rocket 3.9 21:34:40 45° W 21:34:40 45° W 21:39:01 10° NNW
SeaSat 1 4.1 21:35:24 10° N 21:39:47 32° NW 21:44:09 10° WSW
Cosmos 2369 Rocket 3.0 21:38:56 10° NW 21:43:36 48° W 21:43:36 48° W
Cosmos 1943 Rocket 3.4 21:50:29 10° NNW 21:53:53 38° NNW 21:53:53 38° NNW
H-2A R/B 4.4 22:24:26 17° N 22:24:26 17° N 22:25:31 10° N
CENTAUR R/B 4.5 22:47:41 22° NNE 22:47:41 22° NNE 22:50:27 10° NNE
